Location: Campavaglio
(41.1333°N, 9.2333°E)
Time: 12:01:39
(UTC+00:00)

USA 229 DEB - Pass Details

Date: 07 June 2020
Orbit: 983 x 1229 km, 63.4° (Epoch: 24 June)

Event Time Altitude Azimuth Distance (km) Brightness Sun altitude
Rises 01:08:11 0° 325° (NW) 3,972 7.1 -21.5°
Reaches altitude 10° 01:10:50 10° 327° (NNW) 3,043 6.4 -21.3°
Maximum altitude 01:18:11 82° 54° (NE) 1,204 4.0 -20.6°
Drops below altitude 10° 01:25:51 10° 143° (SE) 3,164 5.9 -19.9°
Sets 01:28:39 0° 144° (SE) 4,137 6.5 -19.7°
